Location: Heilbronn
(49.1548°N, 9.2780°E)
Time: 21:38:09
(UTC+01:00)

Envisat - Visible Passes

Search period start: 24 November 2017 00:00
Search period end: 04 December 2017 00:00
Orbit: 764 x 766 km, 98.2° (Epoch: 24 November)

Date Brightness Start Highest point End Pass type
(mag) Time Alt. Az. Time Alt. Az. Time Alt. Az.
24 Nov 5.1 18:24:47 12° NNE 18:24:47 12° NNE 18:25:15 10° NNE visible
24 Nov 5.4 20:04:59 13° NNW 20:04:59 13° NNW 20:05:34 10° NNW visible
25 Nov 5.2 19:27:54 14° N 19:27:54 14° N 19:28:41 10° N visible
26 Nov 5.1 18:50:50 13° NNE 18:50:50 13° NNE 18:51:30 10° N visible
26 Nov 5.8 20:31:03 10° NNW 20:31:03 10° NNW 20:31:05 10° NNW visible
27 Nov 5.4 19:53:58 13° NNW 19:53:58 13° NNW 19:54:26 10° NNW visible
28 Nov 5.2 19:16:53 13° N 19:16:53 13° N 19:17:28 10° N visible
29 Nov 5.2 18:39:47 11° NNE 18:39:47 11° NNE 18:40:09 10° N visible
29 Nov 5.7 20:19:59 10° NNW 20:19:59 10° NNW 20:20:01 10° NNW visible
30 Nov 5.4 19:42:54 12° N 19:42:54 12° N 19:43:16 10° N visible
01 Dec 5.2 19:05:48 12° N 19:05:48 12° N 19:06:13 10° N visible
02 Dec 5.2 18:28:42 10° NNE 18:28:42 10° NNE 18:28:45 10° NNE visible
02 Dec 5.7 20:08:55 10° NNW 20:08:55 10° NNW 20:08:55 10° NNW visible
03 Dec 5.4 19:31:49 11° N 19:31:49 11° N 19:32:05 10° N visible
